Albert Hubocan

Recruteur en chef - MSK Zilina
5 Déc 2027
Dimanche
Processus

Personnalité

Adaptabilité (20) Ambition (1) Controverse (3) Loyauté (14) Pression (2) Professionnalisme (11) Sportivité (10) Tempérament (12)

Profil

Style d'entraînement Démocratique
Diplôme Continental Pro
Détermination 12
Gestion des joueurs 9
Motivation 6
Discipline 12
Satisfaction professionnelle
36%
Fatigue
0%
Rôle Recruteur en chef
Salaire 11.6K p/s
Contrat 14.03.2028

Performance

Comportement Bon
Efficacité de l'entraînement
12%
Développement des joueurs
40%
Prévention des blessures
35%
Mise en place tactique
20%

Événements récents

A évalué un joueur maintenant
A participé à une réunion de recrutement maintenant
A participé à une réunion de recrutement maintenant
A participé à une réunion de recrutement maintenant
A évalué un joueur maintenant
A évalué un joueur 7j
A évalué un joueur 7j
A évalué un joueur 7j

Suivi en cours

192
Joueur Club Statut Capacité Confiance Observé Dernière observation Dernier vote
Facundo Miño Deportivo Riestra Actif 133 / 120 40% 8 04.12.2027 -
Luis Olivera Defensores Unidos Actif 104 / 95 40% 2 04.12.2027 -
Loïc Williams Colorado Rapids Actif 128 / 110 40% 1 04.12.2027 -
Gonzalo Asis Almagro Actif 108 / 127 40% 3 03.12.2027 -
Rodrigo Ramírez Nueva Chicago Actif 124 / 112 40% 2 03.12.2027 -
Kevin O'Toole New York City Actif 101 / 103 40% 1 03.12.2027 -
Enzo Roldán Unión de Santa Fe Actif 115 / 111 40% 1 30.11.2027 -
Valentín Moreno Tigre Actif 121 / 139 40% 1 30.11.2027 -
Tomás Rojas Atlanta Actif 119 / 111 40% 1 30.11.2027 -
Alejandro Molina Tristán Suárez Actif 116 / 131 40% 4 29.11.2027 -
Mathías Silvera Chaco For Ever Actif 110 / 117 40% 1 28.11.2027 -
Santiago Kubiszyn Morón Actif 117 / 113 40% 1 28.11.2027 -
Franco Quinteros Estudiantes Actif 105 / 112 40% 2 26.11.2027 -
Cristopher Rodríguez Estudiantes de Merida Actif 117 / 124 40% 1 26.11.2027 -
Bruno Leyes Godoy Cruz Actif 136 / 144 40% 1 25.11.2027 -
Pedro Ramírez Deportivo Riestra Actif 123 / 102 40% 1 25.11.2027 -
Cristian Graciano Real Cartagena Actif 124 / 131 40% 1 23.11.2027 -
Nahuel Banegas Tigre Actif 129 / 123 40% 1 23.11.2027 -
Gonzalo Abrego Godoy Cruz Actif 134 / 138 40% 3 22.11.2027 -
Lucas Monzón Alvarado Actif 120 / 103 40% 3 22.11.2027 -
Abel Bustos Racing Actif 108 / 127 40% 1 22.11.2027 -
Marcio Gómez Racing Actif 119 / 110 40% 2 17.11.2027 -
Vicente Poggi Godoy Cruz Actif 130 / 142 40% 1 17.11.2027 -
Santiago Corbo Miramar Misiones Actif 103 / 108 40% 2 16.11.2027 -
Cristian Gorgerino Alvarado Actif 113 / 102 40% 2 16.11.2027 -
Franco Hanashiro Colegiales Actif 102 / 103 40% 2 13.11.2027 -
Aron Agüero Maipú Actif 115 / 104 40% 2 13.11.2027 -
Martín Vallejos Quilmes Actif 115 / 98 40% 1 13.11.2027 -
Ian Pérez Defensores Actif 96 / 93 40% 2 12.11.2027 -
Nicolás Mosca Atlanta Actif 117 / 118 40% 2 12.11.2027 -
Rodrigo González Aldosivi Actif 112 / 133 40% 2 11.11.2027 -
Martín Garay Tigre Actif 122 / 116 40% 1 11.11.2027 -
Gabriel Díaz Patronato Actif 115 / 132 40% 1 09.11.2027 -
Federico Pérez Agropecuario Argentino Actif 115 / 134 40% 3 08.11.2027 -
Juan Pablo Córdoba Gimnasia y Esgrima Actif 103 / 131 40% 1 08.11.2027 -
Bruno Palazzo Nueva Chicago Actif 119 / 124 40% 1 07.11.2027 -
Lucas Arce Godoy Cruz Actif 131 / 128 40% 2 06.11.2027 -
Nicolás Demartini Temperley Actif 115 / 110 40% 2 06.11.2027 -
Patrick Yazbek Nashville SC Actif 129 / 119 40% 1 06.11.2027 -
Alejo Tabares All Boys Actif 126 / 132 40% 3 05.11.2027 -
Agustín Ojeda Chaco For Ever Actif 106 / 102 40% 3 05.11.2027 -
Enzo Silcan Almagro Actif 110 / 108 40% 1 01.11.2027 -
Facundo Rizzi Güemes Actif 117 / 102 40% 2 30.10.2027 -
Tomás Ferreyra Defensores Unidos Actif 117 / 113 40% 3 29.10.2027 -
Enzo Martínez Gimnasia La Plata Actif 130 / 131 40% 3 29.10.2027 -
Yolfran Caricote Metropolitanos Actif 108 / 101 40% 2 28.10.2027 -
Luciano Paredes Maipú Actif 114 / 115 40% 1 28.10.2027 -
Facundo Mater Barracas Central Actif 113 / 138 40% 2 26.10.2027 -
Mauricio Guzmán Tristán Suárez Actif 121 / 128 40% 1 26.10.2027 -
Emanuel Iñíguez Morón Actif 106 / 118 40% 3 21.10.2027 -
Franco Malagueño Colegiales Actif 103 / 122 40% 2 21.10.2027 -
Christian Larotonda Caracas Actif 128 / 133 40% 1 21.10.2027 -
Delfor Minervino Estudiantes Actif 108 / 130 40% 2 18.10.2027 -
Fernando Martínez Central Córdoba SdE Actif 127 / 116 40% 1 18.10.2027 -
Lautaro Blanco Boca Juniors Actif 131 / 111 40% 2 17.10.2027 -
Elías Báez Atlanta United FC Actif 114 / 121 40% 1 17.10.2027 -
José Florentín Independiente Rivadavia Actif 127 / 138 40% 1 17.10.2027 -
Nazareno Colombo Racing Club Actif 127 / 109 40% 3 15.10.2027 -
Agustín Bolívar Quilmes Actif 116 / 107 40% 1 15.10.2027 -
Brian Calderara Chacarita Juniors Actif 104 / 119 40% 1 14.10.2027 -
Juan Camilo Pérez Carabobo Actif 110 / 118 40% 1 13.10.2027 -
Delvin Alfonzo Deportivo Tachira Actif 117 / 116 40% 2 12.10.2027 -
Matías Machado Racing Actif 119 / 95 40% 2 10.10.2027 -
Damián Adín San Miguel Actif 124 / 109 40% 1 10.10.2027 -
Gino Barbieri Almagro Actif 104 / 122 40% 1 09.10.2027 -
Facundo Nadalín San Martín SJ Actif 107 / 111 40% 1 09.10.2027 -
Leonel Pollacchi San Telmo Actif 102 / 107 40% 1 07.10.2027 -
Nicolás Paz San Martín SJ Actif 133 / 102 40% 1 06.10.2027 -
Marco Di Cesare Racing Club Actif 142 / 113 40% 1 05.10.2027 -
Jamie Wähling Valletta Actif 75 / 85 40% 1 16.08.2027 -
Gideon Manaseh Ikorodu City Perdu 92 / 102 40% 1 16.08.2027 -
Alejandro Almaraz Eibar Actif 107 / 110 40% 1 16.08.2027 -
Leonardo Mendicino Bari Actif 128 / 119 40% 2 02.08.2027 -
Uche Jaguar Kwara United Négociation 89 / 109 40% 1 02.08.2027 -
Tommaso Cecotti Carpi Actif 85 / 97 40% 1 02.08.2027 -
Julio Alonso Huesca Actif 132 / 119 40% 6 12.07.2027 -
Jakub Holúbek AS Trencin Perdu 90 / 112 69% 1 12.07.2027 -
Radinio Balker Huddersfield Town Actif 126 / 118 40% 1 12.07.2027 -
Johnly Yfeko AFC Wimbledon Actif 120 / 122 40% 1 12.07.2027 -
Yusi Real Sociedad Actif 134 / 130 40% 1 05.07.2027 -
Harrison Bettoni Wigan Athletic Perdu 102 / 105 40% 1 05.07.2027 -
Luca Moro Padova Actif 135 / 117 40% 1 29.06.2027 -
Matej Trusa DAC Dunajska Streda Refusé 124 / 114 40% 1 29.06.2027 -
Jevan Beattie Harrogate Town Négociation 84 / 101 40% 1 29.06.2027 -
Andreas Gruber DAC Dunajska Streda Actif 115 / 106 40% 2 21.06.2027 -
Kyle Joseph Middlesbrough Actif 114 / 138 40% 1 15.06.2027 -
Gorka Guruzeta Athletic Bilbao Actif 157 / 148 40% 1 15.06.2027 -
Jonathan Cañete Portuguesa Perdu 105 / 109 40% 1 15.06.2027 -
Enrico Delprato Parma Actif 141 / 139 40% 5 30.05.2027 -
Jonathan Spedalieri Renate Actif 110 / 118 40% 2 30.05.2027 -
Oliver Arblaster Sheffield United Actif 123 / 127 40% 3 29.05.2027 -
James Furlong Walsall Actif 97 / 104 40% 1 28.05.2027 -
Marco Bellich Juve Stabia Actif 125 / 131 40% 2 27.05.2027 -
Brayann Pereira West Bromwich Albion Actif 112 / 135 40% 5 24.05.2027 -
Sean Fusire Sheffield Wednesday Actif 105 / 109 40% 2 24.05.2027 -
Mateus Mané Liverpool Actif 139 / 134 40% 1 24.05.2027 Plus d'infos
Daniel Watts Chertanovo Actif 82 / 76 40% 1 24.05.2027 -
Arsen Adamov Akhmat Grozny Actif 124 / 124 40% 5 22.05.2027 -
Cameron Humphreys Port Vale Actif 116 / 120 40% 2 22.05.2027 -
Mitja Križan Rodina Actif 103 / 112 40% 1 21.05.2027 -
Libor Holík Spartak Trnava Actif 110 / 106 40% 2 20.05.2027 -
Stanislav Magkeev Fakel Actif 105 / 107 40% 2 19.05.2027 -
Salvador Manríquez Dorados Actif 114 / 98 40% 2 19.05.2027 -
Ilja Vakhania Krasnodar Actif 124 / 116 40% 2 18.05.2027 -
Lucas Pires Burnley Actif 141 / 139 40% 2 18.05.2027 Plus d'infos
Lorenzo Amatucci Deportivo La Coruña Actif 144 / 120 40% 2 18.05.2027 -
Nacho Martín Gijón Actif 123 / 113 40% 1 17.05.2027 -
Azeem Abdulai Leyton Orient Actif 102 / 91 40% 1 16.05.2027 -
Bojan Roganović Torpedo Moscow Actif 108 / 107 40% 7 15.05.2027 -
Caspar Jander Southampton Actif 128 / 149 40% 8 14.05.2027 -
Louis Leroux FC Nantes Actif 138 / 142 40% 1 14.05.2027 -
Nikita Krivtsov Krasnodar Actif 132 / 137 40% 4 13.05.2027 -
Adrià Altimira Deportivo La Coruña Actif 122 / 143 40% 6 11.05.2027 -
Yussif Saidu Zaragoza Actif 115 / 133 40% 4 11.05.2027 -
Rio Morgan Zvezda Actif 75 / 75 40% 2 11.05.2027 -
Leandro Martins Benfica Actif 91 / 101 40% 1 11.05.2027 -
Guille Rosas Gijón Actif 137 / 142 40% 1 11.05.2027 Plus d'infos
Fernando Costanza Krylya Sovetov Actif 121 / 126 40% 2 08.05.2027 -
Patrick Nwadike Spartak Trnava Actif 113 / 105 40% 4 08.05.2027 -
Simone Canestrelli Pisa Actif 134 / 146 40% 4 08.05.2027 -
Simone Auriletto Renate Actif 105 / 101 40% 1 08.05.2027 -
Peter Kováčik Podbrezova Actif 113 / 107 40% 9 07.05.2027 -
André Miranda Porto Actif 112 / 91 40% 2 07.05.2027 -
Saminu Abdullahi KAMAZ Actif 105 / 101 40% 1 07.05.2027 -
Eduardo Fernandes Benfica Actif 97 / 114 40% 1 07.05.2027 -
João Goulart Casa Pia Actif 126 / 108 40% 2 04.05.2027 -
Ben Nelson Leicester City Actif 128 / 115 40% 2 30.04.2027 -
Filippo Oliana Carrarese Actif 105 / 127 40% 1 30.04.2027 -
Zidane Iqbal NEC Actif 124 / 118 40% 1 29.04.2027 -
Domagoj Bradarić Hellas Verona Actif 139 / 148 40% 5 28.04.2027 -
Rıdvan Yılmaz Besiktas Actif 118 / 135 40% 1 27.04.2027 -
Christ Inao Oulaï Fiorentina Actif 131 / 152 40% 1 27.04.2027 -
Miro Muheim Hamburger SV Actif 138 / 142 40% 2 26.04.2027 -
Andrea Ciofi AC Milan Actif 123 / 129 40% 1 25.04.2027 -
Juan Giménez Rayo Vallecano Actif 114 / 117 40% 1 22.04.2027 -
Lennon Miller AC Milan Actif 125 / 147 40% 1 22.04.2027 -
Ítalo Ural Actif 113 / 102 40% 4 20.04.2027 -
Alejandro Andrade Morelia Actif 102 / 123 40% 3 20.04.2027 -
Harry Williams Walsall Actif 110 / 116 40% 2 15.04.2027 -
Rahim Ibrahim Slovan Bratislava Actif 120 / 133 40% 4 13.04.2027 -
Maxime Sivis Orenburg Actif 116 / 120 40% 2 13.04.2027 -
Bali Mumba Huddersfield Town Actif 124 / 103 40% 3 12.04.2027 -
Michel Ndary Adopo Cagliari Actif 128 / 141 40% 7 11.04.2027 -
João Muniz Sporting CP Actif 120 / 121 40% 4 11.04.2027 -
Nobel Mendy Hull City Actif 124 / 121 40% 3 11.04.2027 -
Álvaro Carrillo APOEL Actif 126 / 119 40% 1 09.04.2027 -
Óscar Gil OH Leuven Actif 115 / 107 40% 2 07.04.2027 -
Flynn Downes Southampton Actif 130 / 137 40% 2 07.04.2027 -
Artem Sokol Rodina Actif 103 / 113 40% 3 07.04.2027 -
Luan Patrick Estrela da Amadora Actif 124 / 105 40% 1 07.04.2027 -
Gédéon Kalulu Aris Actif 114 / 104 40% 2 05.04.2027 -
Doğucan Haspolat Westerlo Actif 113 / 132 40% 3 04.04.2027 -
Jarleysom Portimonense Actif 112 / 131 40% 1 02.04.2027 -
Konstantinos Balogiannis Apollon Actif 121 / 131 40% 2 01.04.2027 -
Nuno Félix Benfica Actif 122 / 124 40% 1 31.03.2027 -
Carel Eiting Omonoia Actif 134 / 141 40% 1 30.03.2027 -
Vojtěch Novák MFK Ruzomberok Actif 109 / 111 40% 1 27.03.2027 -
João Fonseca Benfica Actif 111 / 112 40% 1 27.03.2027 -
Iker Pozo Rodina Actif 116 / 123 40% 2 26.03.2027 -
Alexey Mironov Rostov Actif 117 / 122 40% 2 21.03.2027 -
Harrison Armstrong Hull City Actif 123 / 142 40% 1 21.03.2027 -
Pavel Maslov Chaika Actif 104 / 111 40% 3 19.03.2027 -
Richard Križan AS Trencin Actif 101 / 97 40% 2 16.03.2027 -
Maxim Mukhin Rostov Actif 122 / 118 40% 3 14.03.2027 -
Cesar Blackman Slovan Bratislava Actif 127 / 122 40% 4 12.03.2027 -
Tomás Silva DAC Dunajska Streda Actif 115 / 112 40% 2 09.03.2027 -
Alexander Mojžiš MFK Ruzomberok Actif 96 / 110 40% 2 08.03.2027 -
Simone Potop AlbinoLeffe Actif 92 / 101 40% 1 08.03.2027 -
Peter Pokorný AS Trencin Actif 106 / 99 40% 2 07.03.2027 -
Temirkan Sundukov Dinamo Makhachkala Actif 107 / 113 40% 3 05.03.2027 -
Anderson Arroyo Rubin Actif 121 / 118 40% 1 05.03.2027 -
Edgardo Fariña Nizhniy Novgorod Actif 120 / 115 40% 2 03.03.2027 -
Žan Trontelj DAC Dunajska Streda Actif 101 / 110 40% 1 03.03.2027 -
Loïc Bessilé AS Trencin Actif 95 / 106 40% 1 01.03.2027 -
Zayd El Kandoussi Mouscron Actif 106 / 118 40% 1 26.02.2027 -
Tsotne Kapanadze DAC Dunajska Streda Actif 102 / 102 40% 1 25.02.2027 -
Tristan Crama Millwall Actif 126 / 127 40% 1 23.02.2027 -
Júlio Romão Akhmat Grozny Actif 120 / 121 40% 1 21.02.2027 -
Danylo Ignatenko Slovan Bratislava Actif 121 / 121 40% 2 14.02.2027 -
Jhon Palacios Orenburg Actif 115 / 113 40% 1 14.02.2027 -
Andrés Alarcón Dinamo Makhachkala Actif 113 / 109 40% 1 14.02.2027 -
Gustavo Assunção Apollon Actif 127 / 108 40% 1 12.02.2027 -
Sergey Babkin Lokomotiv Moscow Actif 113 / 115 40% 1 08.02.2027 -
Ivan Mesik Charlton Athletic Actif 108 / 116 40% 1 07.02.2027 -
Matthew Guillaumier Hamrun Spartans Actif 95 / 92 40% 1 05.02.2027 -
Khetag Khosonov Akron Actif 108 / 121 40% 1 05.02.2027 -
François Kamano Sochi Actif 116 / 114 40% 1 02.01.2027 -
Eneko Astigarraga Real Sociedad Actif 91 / 119 40% 1 09.12.2026 -
Corey O'Keeffe Barnsley Actif 103 / 110 40% 1 03.11.2026 -
Lucas Souto Defensa y Justicia Actif 112 / 135 40% 1 06.10.2026 -
Nathan Aké Fenerbahce Actif 143 / 157 40% 1 01.08.2026 -
Joe Gomez Liverpool Actif 156 / 129 40% 1 01.08.2026 -